Regional Weather Roundup
Issued by NWS

Home | Current Version | Previous Version | Graphics & Text | Print | Product List | Glossary On
Versions: 1 2 3 4 5 6 7 8 9 10 11 12 13 14 15 16 17 18 19 20 21 22 23 24 25 26 27 28 29 30 31 32 33 34 35 36 37 38 39 40 41 42 43 44 45 46 47 48 49 50
000
ASUS45 KABQ 040410
RWRNM
NEW MEXICO REGIONAL WEATHER ROUNDUP
NATIONAL WEATHER SERVICE ALBUQUERQUE NM
1000 PM MDT FRI JUL 03 2015

NOTE: "FAIR" MEANS FEW OR NO CLOUDS BELOW 12,000 FEET AGL WITH NO
       SIGNIFICANT WEATHER OR OBSTRUCTIONS TO VISION.

      THIS PRODUCT IS RELEASED AS TWO VERSIONS.  ONE VERSION NEAR
      THE TOP OF THE HOUR CONTAINING PRELIMINARY DATA FROM ALBUQUERQUE
      AND OTHER STATIONS.  A FINAL VERSION WITH ADDITIONAL DATA IS
      ISSUED ABOUT 10 MINUTES AFTER THE HOUR.

NMZ501-503-504-510>518-040500-
NORTHWEST PLATEAU/NORTHCENTRAL MOUNTAINS

CITY           SKY/WX    TMP DP  RH WIND       PRES   REMARKS
FARMINGTON     LGT RAIN  68  59  73 SE12      30.11F
LOS ALAMOS     MOCLDY    65  53  64 SW6       30.27S
SANTA FE       MOCLDY    68  53  58 SE3       30.21R
TAOS           MOCLDY    64  46  52 E6        30.28R
ANGEL FIRE     FAIR      55  51  85 CALM      30.38R

$$
NMZ402-403-502-505>509-040500-
WESTCENTRAL MOUNTAINS/SOUTHWEST MOUNTAINS

CITY           SKY/WX    TMP DP  RH WIND       PRES   REMARKS
GALLUP         CLOUDY    67  53  61 S8        30.19R
GRANTS         CLOUDY    69  56  63 SE7       30.23R
SILVER CITY      N/A     75  57  53 SE5       30.14R

$$
NMZ407-409-411-412-040500-
SOUTHERN DESERTS

CITY           SKY/WX    TMP DP  RH WIND       PRES   REMARKS
LORDSBURG      FAIR      81  55  41 S12       30.00R
DEMING         CLOUDY    75  61  61 SW9       30.07R
LAS CRUCES     LGT RAIN  71  64  79 SE9       30.06R
HOLLOMAN AFB   DRIZZLE   73  60  65 SE6       30.03R
ALAMOGORDO     CLOUDY    77  61  57 NE8       30.05R
T OR C         MOCLDY    76  62  62 CALM      30.08R

$$
NMZ519>523-040500-
CENTRAL VALLEYS/CENTRAL HIGHLANDS

CITY           SKY/WX    TMP DP  RH WIND       PRES   REMARKS
ALBUQUERQUE    PTCLDY    73  58  59 SE12      30.13R
DOUBLE EAGLE   CLEAR     72  57  60 SE5       30.17R
MORIARTY ARPT    N/A     68  55  63 SE3       30.22R
CLINES CORNERS MOCLDY    63  55  75 SE6       30.26R
BELEN          FAIR      73  54  51 N9        30.11R
SOCORRO        FAIR      75  59  58 NW9       30.09R

$$
NMZ524>526-539-540-040500-
SOUTHCENTRAL MOUNTAINS

CITY           SKY/WX    TMP DP  RH WIND       PRES   REMARKS
RUIDOSO        NOT AVBL

$$
NMZ527>531-040500-
NORTHEAST HIGHLANDS/NORTHEAST PLAINS

CITY           SKY/WX    TMP DP  RH WIND       PRES   REMARKS
LAS VEGAS      CLOUDY    63  55  75 W3        30.26R
RATON          CLOUDY    61  55  81 S8        30.17F
CLAYTON        MOCLDY    62  58  86 S7        30.15R

$$
NMZ532>537-040500-
EASTCENTRAL PLAINS

CITY           SKY/WX    TMP DP  RH WIND       PRES   REMARKS
TUCUMCARI      CLOUDY    77  60  55 NE16G28   30.09R
CANNON AFB     MOCLDY    73  65  78 S5        30.11R
CLOVIS AIRPORT MOCLDY    70  61  73 S7          N/A

$$
NMZ028-029-538-040500-
SOUTHEAST PLAINS

CITY           SKY/WX    TMP DP  RH WIND       PRES   REMARKS
ROSWELL        MOCLDY    75  59  57 SE6       30.04R
ARTESIA        PTCLDY    75  63  64 SW5       30.04R
CARLSBAD       PTCLDY    75  64  68 CALM      30.01R
HOBBS          MOCLDY    73  64  73 CALM      30.06R


$$


USA.gov is the U.S. government's official web portal to all federal, state and local government web resources and services.